Location: Sungai Jaoh
(2.9167°N, 113.9167°E)
Time: 06:18:07
(UTC+00:00)

Maqsat-B - Pass Details

Date: 30 November 2020
Orbit: 542 x 26538 km, 7.9° (Epoch: 25 January)

Event Time Altitude Azimuth Distance (km) Brightness Sun altitude
Exits shadow 21:03:15 31° 306° (NW) 1,154 3.4 -17.3°
Maximum altitude 21:04:55 54° 9° (N) 966 3.4 -16.9°
Drops below altitude 10° 21:13:55 10° 86° (E) 4,750 8.1 -14.9°
Sets 21:21:56 0° 90° (E) 8,128 9.6 -13.0°
